sat.trackr.live / text

‹ back to catalog

STARLINK-3503

NORAD 51865 · 2022-022P

PAYLOAD ACTIVE UNKNOWN

§ Identity

Operator
Country
US
Launch date
2022-03-03
Launch site
AFETR
Launch vehicle
Mass (kg)
RCS (m²)

Purposes: comms

External: N2YO · Heavens-Above · Gunter

§ Orbital elements

Epoch: 2026-05-25T01:46:20.200224Z

Period
95.44 min
Inclination
53.2154°
Eccentricity
0.0001336
Mean motion
15.08845233 rev/d
Perigee alt
538.8 km
Apogee alt
540.7 km
Semi-major
6,917.9 km
B*
-6.1189e-5
RAAN
26.2170°
Arg perigee
106.8595°
Mean anomaly
253.2544°
Rev number
23,464

§ Raw data

STARLINK-35031 51865U 22022P   26145.07384491 -.00001262  00000+0 -61189-4 0  99982 51865  53.2154  26.2170 0001336 106.8595 253.2544 15.08845233234645

JSON: /api/v1/satellites/51865 · /tle

For live sub-satellite position, see the globe view (requires WebGL).

§ Visibility from observer

Set your observer location to see the next 7 days of passes ≥ 10°. The values pass through the URL so the page stays shareable.

No JS? Fill the form by hand. The geolocation button needs JavaScript.